sat.trackr.live / text

‹ back to catalog

STARLINK-37612

NORAD 69039 · 2026-101Q

PAYLOAD ACTIVE UNKNOWN

§ Identity

Operator
Country
US
Launch date
2026-05-06
Launch site
AFWTR
Launch vehicle
Mass (kg)
RCS (m²)

Purposes: comms

External: N2YO · Heavens-Above · Gunter

§ Orbital elements

Epoch: 2026-09-20T00:41:19.398336Z

Period
93.91 min
Inclination
97.2856°
Eccentricity
0.0002256
Mean motion
15.33449335 rev/d
Perigee alt
464.0 km
Apogee alt
467.1 km
Semi-major
6,843.7 km
B*
4.0164e-4
RAAN
116.4737°
Arg perigee
96.0661°
Mean anomaly
264.0838°
Rev number
2,110

§ Raw data

STARLINK-376121 69039U 26101Q   26263.02869674  .00012916  00000+0  40164-3 0  99942 69039  97.2856 116.4737 0002256  96.0661 264.0838 15.33449335 21103

JSON: /api/v1/satellites/69039 · /tle

For live sub-satellite position, see the globe view (requires WebGL).

§ Visibility from observer

Set your observer location to see the next 7 days of passes ≥ 10°. The values pass through the URL so the page stays shareable.

No JS? Fill the form by hand. The geolocation button needs JavaScript.